Weather History for Ketchikan, AK

Change the Weather History Date:

Saturday, December 1, 2012

  Actual Average Record
Temperature  
Mean Temperature 35 °F -  
Max Temperature 37 °F 42 °F 55 °F (1959)
Min Temperature 33 °F 31 °F 8 °F (1970)
Degree Days  
Heating Degree Days 30    
Moisture  
Dew Point 35 °F    
Average Humidity 97    
Maximum Humidity 100    
Minimum Humidity 89    
Precipitation  
Precipitation 0.36 in - - ()
Sea Level Pressure  
Sea Level Pressure 29.17 in    
Wind  
Wind Speed 1 mph (NNW)    
Max Wind Speed 5 mph    
Max Gust Speed -    
Visibility 9 miles    
Events Rain , Snow    
Averages and records for this station are not official NWS values.
T = Trace of Precipitation, MM = Missing Value Source: NWS Daily Summary

Daily Weather History Graph

Daily Weather History Graph

Search for Another Location

Airport:

Trip Planner

Search our weather history database for the weather conditions in past years. The results will help you decide how hot, cold, wet, or windy it might be!

Date:

Astronomy

Dec. 01, 2012 Rise Set
Actual Time 7:51 AM AKST 3:20 PM AKST
Civil Twilight 7:06 AM AKST 4:05 PM AKST
Nautical Twilight 6:19 AM AKST 4:52 PM AKST
Astronomical Twilight 5:35 AM AKST 5:36 PM AKST
Moon 6:28 PM AKST (12/1) 10:00 AM AKST (12/1)
Length of Visible Light 8h 58m
Length of Day
7h 29m
Waning Gibbous, 91% of the Moon is Illuminated
Dec 1
Waning Gibbous
Dec 6
Last Quarter
Dec 12
New
Dec 19
First Quarter
Dec 28
Full

Hourly Weather History & Observations

Time (AKST) Temp. Windchill Dew Point Humidity Pressure Visibility Wind Dir Wind Speed Gust Speed Precip Events Conditions
12:53 AM 36.0 °F 32.1 °F 33.1 °F 89% 29.19 in 9.0 mi North 4.6 mph - 0.01 in Rain Light Rain
1:53 AM 36.0 °F - 35.1 °F 97% 29.20 in 10.0 mi Calm Calm - 0.04 in Rain Light Rain
2:07 AM 35.6 °F - 35.6 °F 100% 29.20 in 10.0 mi Calm Calm - 0.00 in Rain Light Rain
2:40 AM 35.6 °F 32.8 °F 35.6 °F 100% 29.19 in 8.0 mi NW 3.5 mph - 0.01 in   Overcast
3:53 AM 36.0 °F - 35.1 °F 97% 29.19 in 6.0 mi Calm Calm - 0.01 in Rain Light Rain
4:26 AM 37.4 °F - 35.6 °F 93% 29.19 in 10.0 mi Calm Calm - 0.02 in Rain Light Rain
4:53 AM 37.0 °F - 35.1 °F 93% 29.19 in 10.0 mi Calm Calm - 0.02 in Rain Light Rain
5:02 AM 35.6 °F - 35.6 °F 100% 29.19 in 10.0 mi Calm Calm - 0.00 in Rain Light Rain
5:34 AM 35.6 °F - 35.6 °F 100% 29.18 in 10.0 mi Calm Calm - 0.01 in Rain Light Rain
5:48 AM 35.6 °F - 35.6 °F 100% 29.18 in 10.0 mi Calm Calm - 0.02 in Rain Light Rain
5:53 AM 36.0 °F - 35.1 °F 97% 29.19 in 10.0 mi Calm Calm - 0.02 in Rain Light Rain
6:06 AM 35.6 °F - 35.6 °F 100% 29.18 in 10.0 mi Calm Calm - 0.00 in Rain Light Rain
6:53 AM 36.0 °F - 35.1 °F 97% 29.19 in 10.0 mi Calm Calm - 0.01 in   Overcast
7:53 AM 36.0 °F - 35.1 °F 97% 29.20 in 9.0 mi Calm Calm - 0.00 in Rain Light Rain
8:53 AM 36.0 °F - 35.1 °F 97% 29.20 in 7.0 mi Calm Calm - 0.01 in Rain Light Rain
9:53 AM 36.0 °F - 35.1 °F 97% 29.21 in 10.0 mi Calm Calm - 0.02 in Rain Light Rain
10:53 AM 36.0 °F 33.3 °F 34.0 °F 93% 29.21 in 9.0 mi NNW 3.5 mph - 0.01 in Rain Light Rain
11:53 AM 36.0 °F - 34.0 °F 93% 29.20 in 10.0 mi Calm Calm - 0.01 in Rain Light Rain
12:53 PM 35.1 °F - 34.0 °F 96% 29.20 in 10.0 mi Calm Calm - 0.04 in Rain , Snow Light Rain
1:53 PM 36.0 °F - 34.0 °F 93% 29.20 in 10.0 mi Calm Calm - 0.02 in   Overcast
2:35 PM 35.6 °F - 35.6 °F 100% 29.18 in 9.0 mi Calm Calm - 0.00 in Rain Light Rain
2:53 PM 36.0 °F - 35.1 °F 97% 29.18 in 8.0 mi Calm Calm - 0.00 in Rain Light Rain
3:53 PM 36.0 °F - 34.0 °F 93% 29.18 in 10.0 mi Calm Calm - 0.01 in Rain Light Rain
4:53 PM 35.1 °F - 34.0 °F 96% 29.16 in 10.0 mi Calm Calm - 0.02 in Rain Light Rain
5:53 PM 35.1 °F - 34.0 °F 96% 29.16 in 10.0 mi Calm Calm - 0.00 in Rain Light Rain
6:53 PM 35.1 °F - 34.0 °F 96% 29.15 in 8.0 mi Calm Calm - 0.01 in   Overcast
7:49 PM 35.6 °F - 33.8 °F 93% 29.14 in 10.0 mi Calm Calm - 0.00 in   Overcast
7:53 PM 35.1 °F - 34.0 °F 96% 29.14 in 10.0 mi Calm Calm - 0.00 in   Overcast
8:53 PM 35.1 °F - 34.0 °F 96% 29.13 in 10.0 mi Calm Calm - 0.03 in Rain Light Rain
9:41 PM 33.8 °F - 33.8 °F 100% 29.13 in 4.0 mi Calm Calm - 0.02 in Snow Light Snow
9:53 PM 34.0 °F - 33.1 °F 96% 29.13 in 5.0 mi Calm Calm - 0.03 in Rain Light Rain
10:04 PM 33.8 °F - 33.8 °F 100% 29.12 in 6.0 mi Calm Calm - 0.00 in Rain Light Rain
10:53 PM 34.0 °F - 33.1 °F 96% 29.12 in 5.0 mi Calm Calm - 0.01 in Rain Light Rain
11:33 PM 33.8 °F - 33.8 °F 100% 29.11 in 8.0 mi Calm Calm - 0.02 in Rain Light Rain
11:53 PM 34.0 °F - 33.1 °F 96% 29.12 in 8.0 mi Calm Calm - 0.03 in Rain Light Rain